Preview of NWS' New Version of Forecast
This preview is not operational and should not be used for support decisions.

Regional Weather Roundup (RWR)

Issued by Midland/Odessa (MAF)

                            
000
ASUS44 KMAF 152210
RWRMAF
MIDLAND AREA WEATHER ROUNDUP
NATIONAL WEATHER SERVICE MIDLAND TX
500 PM CDT MON OCT 15 2018

...IN SOUTHWEST TEXAS AND SOUTHEAST NEW MEXICO...
  
CITY           SKY/WX    TMP DP  RH WIND       PRES   REMARKS
ALPINE         CLOUDY    32  32  99 NE14      30.32F WCI  22          
ANDREWS        CLOUDY    42  26  53 N10       30.31R WCI  36          
ARTESIA        NOT AVBL                                               
BIG SPRING     CLOUDY    43  29  58 N14G22    30.30F WCI  36          
CARLSBAD       CLOUDY    44  25  47 N10       30.33S WCI  39          
DRYDEN         NOT AVBL                                               
FORT STOCKTON  CLOUDY    41  31  67 N14       30.31F WCI  33          
GUAD PASS      CLOUDY    34  25  69 NE43G49   30.20F WCI  18          
HOBBS          CLOUDY    43  25  49 N20       30.30F WCI  34          
LAMESA         NOT AVBL                                               
MARFA            N/A     33  30  88 NE16      30.24F WCI  23          
MIDLAND AIRPK    N/A     43  32  64 N13G21    30.30F WCI  37          
MIDLAND INTL   CLOUDY    42  31  64 NE17      30.29F WCI  34          
ODESSA         CLOUDY    42  28  57 NE12      30.30F WCI  36          
PECOS          CLOUDY    43  28  53 N9        30.34S WCI  38          
PRESIDIO       CLOUDY    48  34  57 N15G22    30.23S                  
SEMINOLE       CLOUDY    41  27  57 NE14G20   30.35S WCI  34          
SNYDER         CLOUDY    44  28  54 NE14G22   30.31F WCI  37          
WINK           CLOUDY    44  27  51 NE13      30.31F WCI  38          
$$
...OTHER STATIONS IN TEXAS...
  
CITY           SKY/WX    TMP DP  RH WIND       PRES   REMARKS
ABILENE        CLOUDY    45  35  68 N17G28    30.27F WCI  38          
AMARILLO       CLOUDY    44  21  40 N13       30.37R WCI  38          
AUSTIN         CLOUDY    48  44  86 N22G35    30.14S                  
BROWNSVILLE    CLOUDY    61  59  93 NW22G31   29.97R                  
CORPUS CHRISTI LGT RAIN  52  50  93 N20       30.02F                  
DALLAS FTW     LGT RAIN  43  41  93 N18       30.24F FOG     WCI  35  
DEL RIO        RAIN      44  44 100 NW10G24   30.21F FOG     WCI  39  
EL PASO        CLOUDY    46  29  51 E14       30.23R WCI  40          
HOUSTON INT    HVY RAIN  58  57  97 NW13      30.06R FOG              
LUBBOCK        CLOUDY    43  27  53 NE15      30.32F WCI  36          
SAN ANGELO     CLOUDY    44  34  67 N17G26    30.24F WCI  36          
SAN ANTONIO    CLOUDY    47  43  86 N12G25    30.11R                  
WACO           LGT RAIN  44  42  93 N13G23    30.25R WCI  38          
WICHITA FALLS  MOSUNNY   46  29  51 N8        30.39S                  
$$
...OTHER LOCATIONS IN NEW MEXICO...
  
CITY           SKY/WX    TMP DP  RH WIND       PRES   REMARKS
ALAMOGORDO     NOT AVBL                                               
ALBUQUERQUE    CLOUDY    41  26  55 E23G30    30.27S WCI  31          
CANNON AFB     CLOUDY    38  20  47 NE12      30.35F WCI  31          
CLOVIS         CLOUDY    39  23  52 NE13      30.35F WCI  31          
HOLLOMAN AFB   CLOUDY    51  34  53 W7        30.25S                  
ROSWELL        CLOUDY    43  24  47 N13       30.34F WCI  36          
RUIDOSO        NOT AVBL                                               
SANTA FE       CLOUDY    39  30  70 SE9       30.29S WCI  33          
TRUTH OR CONSE CLOUDY    47  30  51 N13       30.23S                  
TUCUMCARI      CLOUDY    48  21  34 E9        30.32F                  
$$